Wind_Speed
4 4 4 4 3 4 4 4 4 4 4 4 4 4 4 3 3 2 2 2 1 2 2 2 2 2 3 3 4 4 4 4 3 2 2 1 0 1 1 2 4 5 7 7 7 8 8 8 10
4 3 3 3 3 3 4 4 5 5 4 4 3 4 3 3 2 3 3 3 2 2 2 3 2 3 3 4 4 4 5 4 3 3 3 3 2 1 1 2 3 5 6 7 8 8 8 8 9
4 3 3 3 4 4 4 5 5 5 5 4 3 3 3 3 3 3 3 3 3 3 3 3 4 4 4 4 4 4 5 5 4 4 4 4 3 3 2 3 3 5 6 7 8 9 9 9 9
5 4 4 4 4 5 5 4 5 6 6 5 4 4 4 3 3 3 3 3 4 4 4 5 5 5 5 5 5 5 5 6 6 5 5 5 5 4 4 5 5 6 7 8 9 9 10 10 10
6 5 5 5 5 5 5 5 5 5 5 5 5 5 5 4 4 4 4 4 4 5 5 6 6 6 6 6 6 6 6 6 6 5 6 6 6 5 6 6 6 6 8 9 10 11 11 11 12
6 6 6 6 6 6 6 6 6 6 5 6 6 6 5 5 5 5 5 5 5 6 6 7 7 7 7 7 7 7 6 6 6 5 6 6 6 6 6 7 8 9 9 10 10 10 10 10 11
6 6 6 6 6 6 7 7 6 6 6 6 6 6 6 6 6 6 6 6 6 7 7 7 7 7 7 7 7 7 7 6 6 6 6 6 6 6 6 7 7 6 7 9 9 9 9 9 10
6 6 6 6 6 6 7 7 7 6 6 6 6 6 7 7 7 7 7 7 7 7 7 7 7 7 7 8 8 8 7 7 7 7 6 6 7 6 6 5 5 3 4 6 7 8 7 9 9
7 7 6 6 6 7 7 7 7 7 6 6 6 7 7 7 8 8 8 8 7 7 7 6 7 7 7 8 8 8 8 8 8 8 8 8 8 7 6 5 4 3 3 5 6 7 7 8 8
7 7 7 7 7 7 7 7 8 8 7 7 7 7 7 8 8 9 9 8 8 8 8 7 7 7 7 8 8 9 8 8 8 8 8 8 8 8 7 6 5 4 5 5 6 6 7 7 7
7 7 7 7 8 8 8 9 9 8 8 8 8 7 7 8 9 9 9 9 9 9 8 8 8 8 8 9 9 9 9 9 9 9 9 9 9 8 7 7 6 6 7 6 6 6 6 7 7
7 8 8 8 8 9 9 9 9 9 9 8 8 8 9 9 9 9 9 9 9 9 9 9 9 9 9 10 10 10 10 10 10 10 10 10 9 9 8 8 8 8 7 7 7 7 7 7 8
9 9 9 9 9 9 10 10 10 10 10 9 9 8 9 9 9 9 9 8 8 9 9 9 9 10 10 11 11 11 11 11 11 11 10 10 9 10 9 9 9 9 8 9 9 9 8 8 9
10 9 9 10 10 10 10 10 11 11 10 10 10 9 9 10 9 9 10 10 10 10 10 9 9 10 11 11 11 11 11 11 11 10 10 10 10 10 9 9 9 9 9 9 9 9 10 10 10
10 10 9 10 10 10 11 11 12 12 12 11 11 11 11 10 10 10 10 11 11 11 11 11 10 11 11 11 11 11 11 11 11 11 10 10 10 10 10 9 9 9 9 9 9 9 9 10 10
10 11 10 10 11 11 12 12 12 12 12 12 12 12 12 11 11 11 11 11 11 11 11 12 12 11 11 11 10 10 10 11 11 11 10 9 9 9 9 10 10 10 10 10 10 11 11 11 11
11 11 11 11 11 12 12 12 12 12 12 12 12 12 12 11 11 11 11 11 11 11 11 11 11 12 11 11 10 9 10 11 11 11 11 10 10 9 9 10 11 11 10 11 11 11 12 12 12
11 11 12 12 12 12 12 12 11 11 11 12 12 12 12 12 12 12 11 11 11 11 12 12 11 11 12 11 10 10 10 10 11 11 11 11 10 10 10 10 11 11 11 12 12 12 12 12 12
12 12 12 13 13 13 13 12 11 11 12 12 12 12 13 12 12 12 12 11 11 12 12 12 12 12 11 11 10 11 11 11 11 11 11 11 11 11 11 11 11 12 12 12 12 13 13 13 12
12 12 12 13 14 13 13 12 12 13 13 12 12 13 13 13 13 13 13 13 12 12 12 12 12 12 11 11 11 11 11 11 11 11 12 12 12 12 11 12 12 12 13 13 13 13 13 13 14
12 13 13 13 13 13 13 12 13 13 13 12 12 13 14 14 14 14 14 14 13 13 12 12 12 12 12 11 12 11 11 11 11 11 12 12 12 13 12 12 13 13 13 13 13 12 13 13 14
13 13 13 14 13 14 13 13 13 14 14 13 13 14 14 15 15 15 14 14 13 13 13 13 13 13 13 12 12 12 12 12 12 11 12 12 13 13 13 13 13 13 13 13 14 13 14 14 15
14 13 14 14 14 14 14 14 14 14 14 14 14 14 14 15 15 15 14 14 13 13 13 13 13 13 13 13 13 13 12 12 12 12 12 12 13 13 14 14 14 13 13 14 14 14 15 15 16
14 14 14 14 14 14 14 14 14 14 14 15 15 15 14 14 14 15 14 14 14 14 13 13 14 13 13 13 13 13 13 13 13 13 13 13 14 14 15 14 14 14 14 15 15 15 16 16 16
14 14 14 14 14 15 15 15 14 15 14 14 15 15 15 15 15 15 15 15 14 14 14 14 13 13 14 14 14 14 14 14 14 14 14 14 14 15 15 15 14 14 15 15 16 16 17 17 17
15 15 15 15 15 16 16 16 15 15 15 14 15 15 15 15 15 16 16 16 16 15 15 15 15 15 15 15 15 15 15 15 15 15 15 14 15 15 15 15 15 16 16 16 16 17 17 18 18
15 15 16 16 16 16 16 15 15 16 16 15 15 15 15 15 15 16 16 16 16 16 17 16 16 16 16 16 16 16 16 16 16 16 16 16 16 15 16 16 16 16 17 17 17 18 18 19 19
16 16 16 17 17 17 17 16 16 16 16 16 16 15 15 16 16 16 17 17 17 17 17 17 17 17 17 17 17 17 17 17 17 18 17 17 17 16 16 17 18 18 18 19 19 20 20 20 20
17 17 17 18 19 19 19 18 17 17 17 17 18 18 17 17 17 17 17 18 18 18 18 19 19 18 18 18 18 18 18 18 18 18 18 18 18 18 18 18 18 19 19 20 20 21 21 21 22
18 19 19 20 20 20 20 19 19 18 19 19 19 19 19 19 19 18 18 19 20 20 20 19 20 20 20 20 19 19 19 19 19 19 19 19 19 20 20 20 20 21 21 21 22 22 22 23 23
Wind_Direction
153 148 150 157 164 175 182 182 186 190 188 188 192 192 187 185 189 201 208 221 231 247 257 264 265 269 290 304 315 321 321 314 311 314 336 356 18 112 144 184 192 189 189 192 198 201 198 198 199
175 173 172 179 176 189 201 204 204 206 203 204 205 197 190 196 204 207 217 229 243 258 265 267 272 276 290 303 307 310 316 320 317 305 313 325 320 309 215 215 209 203 199 196 200 205 207 206 206
202 199 198 203 198 207 214 217 221 217 213 211 209 206 205 210 219 231 242 244 251 259 268 275 275 277 285 292 295 302 305 313 306 302 300 302 298 283 263 256 244 225 211 208 210 215 216 213 214
217 218 219 222 218 219 222 225 219 217 217 217 217 218 219 225 232 250 259 259 260 268 274 277 279 281 282 283 285 290 293 296 293 291 296 298 295 283 270 265 257 237 228 225 224 226 225 224 222
223 229 233 232 226 226 227 231 235 233 226 224 230 235 236 239 246 260 269 272 269 269 276 279 278 278 278 276 276 279 281 283 285 282 290 298 297 280 266 260 258 243 234 228 229 233 230 230 225
227 231 233 234 230 233 235 237 241 239 241 239 239 236 242 247 252 263 272 278 278 277 277 278 277 276 275 273 273 275 275 279 283 285 291 297 293 288 285 280 267 263 245 230 229 233 234 231 226
225 230 233 232 233 236 238 239 241 238 241 242 241 242 244 250 256 265 272 278 279 280 280 279 277 274 273 272 273 274 273 275 279 288 293 295 298 297 295 295 289 272 251 235 230 232 233 233 229
226 231 233 233 237 240 240 241 243 241 241 245 247 248 248 254 260 267 272 277 278 279 281 280 276 273 272 272 272 270 269 271 275 282 287 286 292 299 299 306 304 288 245 228 232 238 239 243 239
230 232 234 235 238 240 242 244 244 243 244 246 249 252 254 259 265 270 273 276 278 280 280 279 278 276 276 274 274 272 270 270 272 277 283 284 287 290 291 299 297 287 251 234 237 239 245 246 244
232 234 235 237 239 240 241 242 246 246 246 249 250 253 258 262 264 266 270 272 275 279 275 274 277 275 274 275 276 274 272 270 271 275 279 282 285 285 282 279 272 262 254 246 242 246 246 243 244
235 238 240 241 243 243 242 244 248 250 249 251 253 255 258 264 266 266 268 270 274 275 272 272 273 274 273 273 272 272 270 271 270 272 275 279 280 279 275 271 264 258 252 246 243 241 236 238 239
238 241 245 247 246 247 248 249 249 251 249 251 254 258 265 266 267 266 267 271 270 269 269 270 271 273 273 272 271 269 270 272 271 270 271 274 276 272 269 270 265 260 254 249 250 247 242 241 241
243 245 246 247 246 248 252 252 251 251 250 251 253 255 264 267 267 265 266 269 271 271 268 271 271 273 274 274 272 268 266 271 275 272 270 272 275 272 267 267 267 262 257 252 251 246 249 248 249
250 248 249 251 249 250 254 253 251 249 250 252 254 257 262 264 265 266 269 269 270 271 271 270 272 273 275 274 273 271 268 271 274 274 271 270 271 270 269 269 264 262 258 253 250 249 251 254 256
258 256 251 253 254 253 255 253 252 253 254 253 253 257 260 265 267 269 269 268 269 271 273 274 274 273 274 276 275 274 271 270 270 271 268 266 269 270 266 264 265 264 262 258 252 252 254 256 256
264 264 262 257 257 258 257 257 254 255 254 253 254 257 259 267 269 270 271 271 270 271 273 276 275 275 278 279 277 274 272 270 268 266 266 267 267 269 267 265 269 270 265 261 258 256 256 258 259
266 268 267 264 261 260 259 259 258 257 257 256 255 257 260 263 266 267 271 272 269 270 273 276 277 279 283 282 279 275 273 271 268 265 265 266 268 269 268 268 270 272 267 262 260 260 259 261 262
266 269 269 268 264 262 261 263 263 261 260 259 259 259 259 260 263 265 268 270 271 274 276 277 278 279 284 285 283 280 276 273 271 267 267 268 269 267 268 268 270 269 266 264 266 266 263 262 261
264 267 267 267 265 263 261 261 262 261 260 258 259 258 258 261 262 263 266 268 274 276 276 276 277 276 280 283 279 280 276 275 275 272 269 269 269 268 269 270 272 273 270 267 268 267 262 259 259
264 266 266 265 266 266 263 260 261 260 259 258 257 258 259 259 261 264 268 270 273 278 277 274 271 273 277 279 278 277 274 274 276 275 269 267 267 268 267 268 273 275 274 273 273 268 263 260 259
265 266 267 268 268 268 268 262 261 260 259 259 258 259 260 261 262 265 267 268 270 273 276 274 270 273 275 275 275 276 276 274 277 276 270 267 265 265 268 267 271 273 275 273 271 268 269 265 261
266 267 268 269 269 269 268 266 263 260 259 261 262 264 264 264 264 265 266 268 270 272 273 274 275 272 272 272 273 277 278 276 277 278 274 270 269 270 270 270 271 272 272 270 270 269 269 268 266
265 266 268 269 268 267 265 264 265 263 259 261 264 265 266 264 263 264 264 266 268 270 271 273 273 273 270 272 274 275 274 275 276 277 275 272 272 272 272 275 272 272 270 270 271 269 268 268 267
265 267 268 268 267 264 263 262 262 262 261 262 263 263 263 261 261 262 263 264 265 266 268 270 268 272 273 273 275 276 274 273 274 276 275 273 272 271 272 272 272 271 271 272 271 271 269 268 268
264 267 269 269 266 265 263 262 262 262 262 260 259 261 259 258 258 260 263 264 266 265 266 268 268 272 273 274 276 275 274 273 273 274 276 275 273 272 272 272 272 271 271 272 271 271 269 268 269
262 264 266 268 267 266 265 264 264 263 261 258 257 258 257 256 258 260 263 264 266 267 266 267 269 271 271 271 274 276 276 273 272 272 273 273 274 273 272 271 270 270 272 272 271 270 270 270 270
261 262 265 266 267 268 267 264 263 262 258 258 257 257 256 257 259 260 262 262 263 266 266 267 271 271 270 271 272 274 275 273 273 273 275 275 274 273 272 271 272 271 272 274 272 271 272 273 273
261 262 262 263 266 268 269 266 265 263 259 257 258 257 256 257 258 259 260 261 262 265 264 265 267 270 272 272 272 272 272 273 273 274 274 276 274 272 273 274 275 276 276 276 275 273 273 273 273
262 261 262 263 263 266 269 270 266 264 261 259 258 258 259 257 257 259 261 261 263 264 264 265 265 266 268 271 272 274 272 271 273 274 275 276 274 275 276 276 277 277 278 278 277 276 274 273 273
262 262 262 263 264 264 267 269 269 266 262 261 260 259 260 257 257 258 260 262 263 264 265 265 267 267 268 270 271 272 272 270 270 272 274 276 276 276 277 276 278 278 279 279 278 276 276 276 275
Height
5878 5878 5879 5880 5882 5882 5882 5882 5882 5882 5882 5882 5883 5883 5883 5883 5884 5886 5883 5882 5882 5881 5881 5880 5880 5880 5879 5878 5878 5877 5876 5874 5873 5873 5872 5871 5869 5868 5867 5866 5866 5867 5867 5868 5869 5870 5871 5872 5872
5878 5878 5880 5881 5881 5881 5881 5881 5881 5882 5882 5882 5882 5882 5882 5882 5882 5883 5882 5881 5881 5881 5880 5880 5879 5879 5879 5878 5877 5876 5875 5874 5873 5872 5871 5870 5869 5868 5868 5867 5867 5867 5867 5868 5869 5869 5870 5871 5872
5877 5878 5879 5880 5879 5880 5881 5880 5881 5881 5881 5881 5881 5882 5882 5882 5882 5881 5881 5881 5880 5880 5880 5879 5879 5878 5878 5877 5876 5875 5874 5874 5873 5872 5871 5870 5869 5869 5868 5868 5867 5867 5867 5867 5868 5869 5869 5870 5871
5876 5878 5879 5879 5878 5879 5879 5879 5880 5880 5880 5880 5880 5881 5881 5881 5881 5881 5880 5880 5879 5879 5879 5878 5878 5878 5877 5876 5875 5875 5874 5873 5872 5871 5871 5870 5869 5868 5868 5867 5866 5865 5865 5866 5867 5867 5869 5869 5870
5875 5877 5877 5877 5877 5878 5878 5878 5879 5879 5879 5879 5879 5880 5879 5880 5880 5879 5879 5879 5878 5878 5877 5877 5877 5876 5876 5875 5874 5874 5873 5872 5871 5870 5870 5869 5868 5867 5867 5866 5865 5863 5863 5864 5865 5866 5867 5868 5868
5875 5875 5876 5876 5876 5876 5876 5877 5877 5878 5878 5878 5878 5878 5878 5878 5878 5878 5878 5878 5877 5877 5876 5876 5875 5875 5874 5874 5873 5873 5872 5871 5871 5870 5869 5868 5867 5866 5865 5864 5862 5861 5860 5861 5863 5865 5865 5866 5867
5874 5874 5874 5874 5875 5875 5875 5875 5876 5876 5876 5877 5877 5877 5877 5877 5877 5877 5877 5876 5876 5875 5875 5874 5874 5873 5873 5872 5872 5871 5871 5870 5869 5869 5868 5867 5867 5866 5864 5863 5859 5856 5855 5858 5861 5863 5864 5865 5866
5872 5873 5873 5873 5873 5874 5874 5874 5874 5875 5875 5875 5875 5876 5875 5876 5875 5875 5875 5875 5874 5874 5873 5873 5872 5872 5871 5871 5870 5870 5869 5869 5868 5868 5867 5866 5866 5865 5863 5861 5858 5855 5855 5858 5861 5862 5863 5863 5864
5870 5872 5871 5872 5872 5872 5872 5873 5873 5873 5873 5874 5874 5874 5874 5874 5874 5873 5873 5873 5872 5872 5871 5871 5871 5870 5870 5869 5869 5868 5868 5867 5867 5867 5866 5865 5864 5863 5863 5861 5859 5858 5858 5859 5860 5861 5862 5862 5862
5868 5869 5870 5870 5870 5870 5871 5871 5871 5871 5872 5872 5872 5872 5872 5872 5872 5872 5871 5871 5870 5870 5870 5869 5869 5868 5868 5867 5867 5866 5866 5866 5866 5865 5864 5864 5863 5862 5861 5861 5859 5858 5858 5859 5859 5860 5860 5861 5861
5866 5867 5867 5868 5868 5868 5869 5869 5869 5869 5870 5870 5870 5870 5870 5870 5869 5869 5869 5869 5868 5868 5868 5867 5867 5866 5866 5866 5865 5865 5864 5864 5864 5863 5863 5862 5861 5860 5860 5859 5859 5858 5858 5858 5858 5858 5859 5859 5860
5864 5865 5865 5865 5866 5866 5866 5867 5867 5867 5868 5868 5868 5868 5868 5868 5867 5867 5867 5867 5866 5866 5866 5865 5865 5864 5864 5863 5863 5863 5862 5862 5862 5861 5861 5860 5859 5859 5858 5858 5857 5857 5857 5857 5857 5857 5857 5858 5858
5862 5862 5862 5863 5863 5863 5864 5864 5864 5865 5865 5865 5866 5866 5866 5866 5865 5865 5865 5865 5864 5864 5864 5863 5863 5862 5861 5861 5860 5860 5860 5860 5859 5859 5858 5858 5857 5857 5856 5856 5855 5855 5855 5855 5855 5855 5856 5856 5856
5860 5860 5860 5860 5860 5860 5861 5861 5861 5862 5862 5863 5863 5863 5863 5863 5863 5863 5863 5863 5862 5862 5861 5861 5860 5859 5859 5858 5857 5857 5857 5857 5856 5856 5856 5855 5855 5854 5854 5854 5853 5853 5853 5853 5853 5854 5854 5854 5854
5857 5857 5857 5857 5857 5858 5858 5858 5859 5859 5859 5860 5860 5861 5861 5861 5861 5861 5860 5860 5860 5859 5858 5858 5857 5857 5856 5855 5854 5853 5853 5853 5853 5853 5853 5852 5852 5851 5851 5851 5851 5851 5851 5851 5851 5851 5852 5852 5852
5854 5855 5855 5855 5855 5855 5857 5856 5856 5856 5856 5857 5857 5857 5858 5858 5858 5858 5858 5857 5857 5856 5856 5855 5854 5854 5853 5852 5851 5850 5850 5850 5850 5850 5850 5850 5849 5849 5849 5849 5849 5849 5849 5849 5849 5849 5849 5849 5850
5852 5852 5852 5853 5852 5852 5853 5853 5853 5853 5853 5854 5854 5854 5855 5855 5856 5855 5855 5855 5854 5853 5853 5852 5851 5851 5850 5849 5848 5848 5848 5847 5847 5847 5847 5847 5847 5846 5846 5846 5846 5846 5846 5846 5846 5846 5846 5847 5847
5850 5850 5850 5850 5849 5849 5849 5850 5850 5850 5850 5850 5851 5851 5852 5853 5853 5852 5852 5852 5851 5851 5850 5849 5848 5848 5847 5846 5846 5845 5845 5845 5845 5844 5844 5844 5843 5844 5844 5844 5844 5844 5844 5844 5843 5843 5843 5844 5844
5847 5847 5847 5847 5846 5846 5846 5847 5847 5847 5847 5847 5848 5848 5849 5849 5850 5850 5849 5849 5849 5848 5847 5846 5845 5845 5844 5844 5843 5843 5843 5842 5842 5842 5841 5841 5841 5841 5841 5841 5841 5841 5841 5841 5841 5840 5840 5841 5841
5843 5844 5843 5843 5843 5843 5843 5844 5844 5843 5844 5844 5845 5845 5846 5846 5846 5846 5846 5846 5845 5845 5844 5843 5842 5842 5842 5841 5841 5840 5840 5840 5839 5839 5839 5838 5838 5838 5838 5838 5838 5838 5838 5837 5837 5837 5837 5837 5838
5840 5840 5840 5840 5839 5839 5840 5841 5841 5840 5840 5841 5841 5841 5842 5842 5843 5843 5842 5842 5842 5842 5841 5840 5839 5839 5839 5839 5838 5838 5837 5837 5837 5836 5836 5835 5835 5835 5834 5835 5835 5834 5834 5834 5834 5834 5834 5834 5834
5836 5836 5836 5836 5836 5836 5837 5837 5837 5837 5837 5837 5838 5838 5838 5838 5839 5839 5839 5839 5839 5838 5838 5838 5837 5836 5836 5836 5836 5835 5835 5834 5834 5833 5833 5832 5832 5831 5831 5831 5831 5831 5831 5831 5831 5830 5830 5831 5831
5833 5832 5832 5832 5832 5832 5832 5833 5834 5833 5833 5834 5834 5834 5834 5834 5835 5835 5835 5835 5835 5835 5835 5835 5834 5834 5833 5833 5832 5832 5832 5831 5830 5830 5829 5829 5829 5828 5828 5828 5827 5827 5827 5827 5827 5827 5827 5827 5827
5829 5829 5828 5828 5828 5829 5829 5829 5830 5829 5830 5830 5830 5830 5830 5830 5830 5831 5831 5831 5831 5831 5831 5831 5831 5831 5830 5830 5829 5829 5828 5828 5827 5827 5826 5826 5825 5825 5824 5824 5824 5824 5823 5823 5823 5823 5823 5823 5823
5825 5825 5825 5824 5824 5825 5825 5825 5826 5825 5825 5826 5826 5826 5826 5826 5826 5827 5827 5827 5828 5828 5828 5828 5828 5828 5827 5827 5826 5825 5825 5824 5824 5823 5823 5822 5822 5821 5821 5820 5820 5820 5820 5819 5819 5819 5819 5819 5819
5821 5821 5822 5822 5821 5821 5820 5821 5823 5821 5821 5821 5821 5822 5822 5822 5822 5822 5823 5823 5824 5824 5824 5824 5824 5824 5824 5823 5823 5822 5821 5821 5820 5819 5819 5818 5818 5817 5817 5816 5816 5816 5815 5815 5815 5814 5814 5814 5814
5816 5816 5817 5817 5816 5816 5816 5817 5818 5817 5817 5817 5817 5817 5817 5818 5818 5818 5819 5819 5819 5820 5820 5820 5820 5820 5820 5819 5819 5818 5818 5817 5816 5815 5815 5814 5814 5813 5813 5812 5812 5811 5811 5810 5810 5810 5809 5809 5808
5812 5812 5812 5812 5812 5812 5813 5813 5813 5812 5812 5813 5813 5813 5813 5813 5814 5814 5814 5814 5815 5815 5815 5815 5816 5816 5815 5815 5814 5814 5813 5812 5812 5811 5811 5810 5810 5809 5809 5808 5807 5807 5806 5805 5805 5804 5804 5803 5803
5807 5807 5807 5807 5807 5807 5807 5810 5808 5807 5807 5808 5808 5808 5808 5809 5809 5809 5809 5810 5810 5810 5810 5810 5811 5810 5810 5810 5809 5809 5808 5808 5807 5806 5806 5805 5805 5804 5804 5803 5802 5802 5801 5800 5799 5798 5798 5797 5797
5801 5801 5802 5802 5802 5801 5802 5806 5802 5802 5802 5802 5803 5803 5803 5804 5804 5804 5805 5805 5805 5805 5805 5805 5805 5805 5805 5804 5804 5803 5803 5802 5802 5801 5801 5800 5800 5799 5798 5798 5797 5796 5795 5794 5793 5792 5792 5791 5790